| time (UTC) | temp F | wind direction | speed MPH | gust MPH | rain 1hr in | rain 24hr in | rain mn in | humidity % | barometer mb |
| 20260505073527 | 67 | 83 | 6.0 | 11.0 | 0.00 | 0.00 | 0.00 | 73 | 1001.5 |
| 20260505073027 | 67 | 91 | 6.0 | 9.0 | 0.00 | 0.00 | 0.00 | 73 | 1001.7 |
| 20260505072528 | 67 | 93 | 5.0 | 9.0 | 0.00 | 0.00 | 0.00 | 73 | 1001.9 |
| 20260505072027 | 68 | 86 | 4.0 | 7.0 | 0.00 | 0.00 | 0.00 | 72 | 1001.9 |
| 20260505071527 | 68 | 87 | 5.0 | 9.0 | 0.00 | 0.00 | 0.00 | 73 | 1002.1 |
| 20260505071028 | 68 | 75 | 5.0 | 10.0 | 0.00 | 0.00 | 0.00 | 72 | 1002.1 |
| 20260505070528 | 68 | 76 | 4.0 | 8.0 | 0.00 | 0.00 | 0.00 | 72 | 1002.1 |
| 20260505070027 | 68 | 87 | 4.0 | 7.0 | 0.00 | 0.00 | 0.00 | 73 | 1002.1 |
| 20260505065527 | 68 | 78 | 4.0 | 6.0 | 0.00 | 0.00 | 0.00 | 73 | 1002.2 |
| 20260505065028 | 68 | 81 | 5.0 | 8.0 | 0.00 | 0.00 | 0.00 | 73 | 1002.2 |
| 20260505064027 | 68 | 73 | 4.0 | 5.0 | 0.00 | 0.00 | 0.00 | 74 | 1002.4 |
| 20260505063527 | 68 | 77 | 3.0 | 6.0 | 0.00 | 0.00 | 0.00 | 74 | 1002.4 |
| 20260505063027 | 68 | 76 | 3.0 | 5.0 | 0.00 | 0.00 | 0.00 | 74 | 1002.4 |
| 20260505062527 | 67 | 63 | 3.0 | 5.0 | 0.00 | 0.00 | 0.00 | 75 | 1002.3 |
| 20260505062027 | 67 | 72 | 3.0 | 6.0 | 0.00 | 0.00 | 0.00 | 76 | 1002.4 |
| 20260505061527 | 67 | 81 | 2.0 | 5.0 | 0.00 | 0.00 | 0.00 | 75 | 1002.6 |
| 20260505061028 | 68 | 48 | 1.0 | 3.0 | 0.00 | 0.00 | 0.00 | 74 | 1002.6 |
| 20260505060528 | 68 | 25 | 1.0 | 3.0 | 0.00 | 0.00 | 0.00 | 74 | 1002.5 |
| 20260505060027 | 68 | 49 | 1.0 | 3.0 | 0.00 | 0.00 | 0.00 | 73 | 1002.3 |
| 20260505055527 | 69 | 148 | 0.0 | 2.0 | 0.00 | 0.00 | 0.00 | 71 | 1002.2 |
| 20260505055027 | 69 | 354 | 0.0 | 2.0 | 0.00 | 0.00 | 0.00 | 70 | 1002.2 |
| 20260505054527 | 69 | 72 | 1.0 | 5.0 | 0.00 | 0.00 | 0.00 | 71 | 1002.1 |
| 20260505054027 | 69 | 35 | 3.0 | 5.0 | 0.00 | 0.00 | 0.00 | 69 | 1002.1 |
| 20260505053527 | 69 | 47 | 2.0 | 5.0 | 0.00 | 0.00 | 0.00 | 69 | 1001.9 |
| 20260505053027 | 69 | 127 | 3.0 | 7.0 | 0.00 | 0.00 | 0.00 | 69 | 1001.7 |
| 20260505052527 | 69 | 156 | 3.0 | 7.0 | 0.00 | 0.00 | 0.00 | 69 | 1001.6 |
| 20260505052028 | 69 | 170 | 3.0 | 9.0 | 0.00 | 0.00 | 0.00 | 69 | 1001.5 |
| 20260505051528 | 69 | 162 | 4.0 | 7.0 | 0.00 | 0.00 | 0.00 | 69 | 1001.7 |
| 20260505051028 | 69 | 169 | 4.0 | 8.0 | 0.00 | 0.00 | 0.00 | 68 | 1001.7 |
| 20260505050528 | 69 | 163 | 3.0 | 7.0 | 0.00 | 0.00 | 0.00 | 68 | 1001.6 |
| 20260505041527 | 69 | 139 | 3.0 | 13.0 | 0.00 | 0.00 | 0.00 | 66 | 1001.3 |
| 20260505041028 | 69 | 146 | 3.0 | 8.0 | 0.00 | 0.00 | 0.00 | 66 | 1001.4 |
| 20260505040528 | 69 | 138 | 3.0 | 9.0 | 0.00 | 0.00 | 0.00 | 66 | 1001.5 |
| 20260505040027 | 69 | 134 | 2.0 | 7.0 | 0.00 | 0.00 | 0.00 | 65 | 1001.6 |
| 20260505035527 | 69 | 155 | 4.0 | 7.0 | 0.00 | 0.00 | 0.00 | 65 | 1001.6 |
| 20260505034028 | 69 | 159 | 3.0 | 7.0 | 0.00 | 0.00 | 0.00 | 64 | 1001.8 |
| 20260505033528 | 69 | 142 | 5.0 | 9.0 | 0.00 | 0.00 | 0.00 | 64 | 1001.7 |
| 20260505032027 | 70 | 130 | 3.0 | 6.0 | 0.00 | 0.00 | 0.00 | 63 | 1002.3 |
| 20260505031527 | 70 | 122 | 4.0 | 7.0 | 0.00 | 0.00 | 0.00 | 63 | 1002.4 |
| 20260505031027 | 70 | 121 | 3.0 | 6.0 | 0.00 | 0.00 | 0.00 | 63 | 1002.5 |
| 20260505030527 | 70 | 113 | 3.0 | 7.0 | 0.00 | 0.00 | 0.00 | 63 | 1002.4 |
| 20260505025027 | 70 | 119 | 3.0 | 6.0 | 0.00 | 0.00 | 0.00 | 64 | 1002.5 |
| 20260505024527 | 70 | 116 | 4.0 | 7.0 | 0.00 | 0.00 | 0.00 | 63 | 1002.3 |
| 20260505024028 | 70 | 120 | 4.0 | 7.0 | 0.00 | 0.00 | 0.00 | 63 | 1002.4 |
| 20260505023528 | 70 | 108 | 4.0 | 8.0 | 0.00 | 0.00 | 0.00 | 63 | 1002.4 |
| 20260505023027 | 70 | 115 | 3.0 | 7.0 | 0.00 | 0.00 | 0.00 | 63 | 1002.6 |
| 20260505022527 | 70 | 127 | 3.0 | 6.0 | 0.00 | 0.00 | 0.00 | 63 | 1002.7 |
| 20260505022028 | 70 | 111 | 3.0 | 7.0 | 0.00 | 0.00 | 0.00 | 62 | 1002.6 |
| 20260505021528 | 70 | 105 | 3.0 | 7.0 | 0.00 | 0.00 | 0.00 | 62 | 1002.6 |
| 20260505021027 | 71 | 112 | 2.0 | 6.0 | 0.00 | 0.00 | 0.00 | 62 | 1002.7 |
| 20260505020527 | 71 | 117 | 3.0 | 4.0 | 0.00 | 0.00 | 0.00 | 61 | 1002.6 |
| 20260505020028 | 71 | 132 | 3.0 | 6.0 | 0.00 | 0.00 | 0.00 | 61 | 1002.6 |
| 20260505015528 | 71 | 124 | 3.0 | 7.0 | 0.00 | 0.00 | 0.00 | 60 | 1002.5 |
| 20260505015027 | 71 | 133 | 3.0 | 10.0 | 0.00 | 0.00 | 0.00 | 60 | 1002.5 |
| 20260505014527 | 72 | 129 | 2.0 | 5.0 | 0.00 | 0.00 | 0.00 | 60 | 1002.5 |
| 20260505014028 | 72 | 150 | 2.0 | 3.0 | 0.00 | 0.00 | 0.00 | 60 | 1002.4 |
| 20260505013528 | 72 | 127 | 2.0 | 6.0 | 0.00 | 0.00 | 0.00 | 60 | 1002.4 |
| 20260505011527 | 72 | 141 | 2.0 | 7.0 | 0.00 | 0.00 | 0.00 | 60 | 1002.4 |
| 20260505011027 | 73 | 136 | 2.0 | 6.0 | 0.00 | 0.00 | 0.00 | 60 | 1002.5 |
| 20260505010527 | 73 | 148 | 2.0 | 4.0 | 0.00 | 0.00 | 0.00 | 60 | 1002.4 |
| 20260505010027 | 73 | 141 | 2.0 | 5.0 | 0.00 | 0.00 | 0.00 | 60 | 1002.4 |
| 20260505005527 | 74 | 133 | 2.0 | 6.0 | 0.00 | 0.00 | 0.00 | 59 | 1002.4 |
| 20260505005027 | 74 | 154 | 2.0 | 6.0 | 0.00 | 0.00 | 0.00 | 58 | 1002.4 |
| 20260505004527 | 74 | 153 | 3.0 | 7.0 | 0.00 | 0.00 | 0.00 | 58 | 1002.4 |
| 20260505004027 | 74 | 151 | 3.0 | 5.0 | 0.00 | 0.00 | 0.00 | 58 | 1002.4 |
| 20260505003527 | 74 | 136 | 2.0 | 5.0 | 0.00 | 0.00 | 0.00 | 58 | 1002.4 |
| 20260505003028 | 75 | 154 | 2.0 | 5.0 | 0.00 | 0.00 | 0.00 | 58 | 1002.4 |
| 20260505002527 | 75 | 159 | 3.0 | 6.0 | 0.00 | 0.00 | 0.00 | 57 | 1002.5 |
| 20260505002027 | 75 | 186 | 5.0 | 11.0 | 0.00 | 0.00 | 0.00 | 57 | 1002.5 |
| 20260505001527 | 75 | 147 | 2.0 | 6.0 | 0.00 | 0.00 | 0.00 | 57 | 1002.6 |
| 20260505001027 | 75 | 159 | 4.0 | 8.0 | 0.00 | 0.00 | 0.00 | 57 | 1002.6 |
| 20260504234528 | 76 | 178 | 3.0 | 6.0 | 0.00 | 0.00 | 0.00 | 56 | 1002.9 |
| 20260504234027 | 76 | 154 | 4.0 | 8.0 | 0.00 | 0.00 | 0.00 | 56 | 1002.9 |
| 20260504233527 | 76 | 171 | 4.0 | 12.0 | 0.00 | 0.00 | 0.00 | 56 | 1003.0 |
| 20260504233027 | 76 | 183 | 3.0 | 8.0 | 0.00 | 0.00 | 0.00 | 56 | 1003.1 |
| 20260504232527 | 76 | 175 | 4.0 | 8.0 | 0.00 | 0.00 | 0.00 | 56 | 1003.2 |
| 20260504232027 | 76 | 168 | 4.0 | 9.0 | 0.00 | 0.00 | 0.00 | 55 | 1003.2 |
| 20260504231527 | 76 | 171 | 4.0 | 8.0 | 0.00 | 0.00 | 0.00 | 56 | 1003.2 |
| 20260504231027 | 76 | 187 | 5.0 | 9.0 | 0.00 | 0.00 | 0.00 | 57 | 1003.2 |
| 20260504230527 | 76 | 185 | 4.0 | 10.0 | 0.00 | 0.00 | 0.00 | 56 | 1003.2 |
| 20260504230027 | 77 | 175 | 6.0 | 11.0 | 0.00 | 0.00 | 0.00 | 56 | 1003.1 |
| 20260504225528 | 77 | 172 | 4.0 | 8.0 | 0.00 | 0.00 | 0.00 | 56 | 1003.1 |
| 20260504225028 | 77 | 169 | 3.0 | 10.0 | 0.00 | 0.00 | 0.00 | 56 | 1003.1 |
| 20260504224528 | 77 | 183 | 6.0 | 11.0 | 0.00 | 0.00 | 0.00 | 55 | 1003.1 |
| 20260504224028 | 77 | 172 | 3.0 | 9.0 | 0.00 | 0.00 | 0.00 | 56 | 1003.0 |
| 20260504223528 | 77 | 177 | 5.0 | 12.0 | 0.00 | 0.00 | 0.00 | 55 | 1003.0 |
| 20260504223028 | 77 | 179 | 6.0 | 12.0 | 0.00 | 0.00 | 0.00 | 54 | 1003.0 |
| 20260504222527 | 77 | 178 | 4.0 | 10.0 | 0.00 | 0.00 | 0.00 | 55 | 1003.0 |
| 20260504222027 | 77 | 192 | 4.0 | 12.0 | 0.00 | 0.00 | 0.00 | 55 | 1002.9 |
| 20260504221527 | 77 | 186 | 5.0 | 14.0 | 0.00 | 0.00 | 0.00 | 55 | 1002.9 |
| 20260504221027 | 77 | 172 | 4.0 | 7.0 | 0.00 | 0.00 | 0.00 | 54 | 1002.9 |
| 20260504220527 | 78 | 179 | 4.0 | 7.0 | 0.00 | 0.00 | 0.00 | 55 | 1002.9 |
| 20260504220027 | 78 | 185 | 7.0 | 14.0 | 0.00 | 0.00 | 0.00 | 53 | 1002.9 |
| 20260504215527 | 78 | 184 | 5.0 | 12.0 | 0.00 | 0.00 | 0.00 | 54 | 1002.9 |
| 20260504215027 | 78 | 188 | 6.0 | 12.0 | 0.00 | 0.00 | 0.00 | 54 | 1003.0 |
| 20260504214527 | 78 | 191 | 6.0 | 11.0 | 0.00 | 0.00 | 0.00 | 53 | 1003.0 |
| 20260504214027 | 78 | 184 | 7.0 | 19.0 | 0.00 | 0.00 | 0.00 | 53 | 1003.1 |
| 20260504213527 | 78 | 186 | 6.0 | 13.0 | 0.00 | 0.00 | 0.00 | 53 | 1003.1 |
| 20260504213027 | 78 | 186 | 5.0 | 13.0 | 0.00 | 0.00 | 0.00 | 53 | 1003.2 |
| 20260504212527 | 78 | 178 | 4.0 | 10.0 | 0.00 | 0.00 | 0.00 | 53 | 1003.2 |
| 20260504212027 | 78 | 180 | 7.0 | 10.0 | 0.00 | 0.00 | 0.00 | 52 | 1003.3 |
| 20260504211528 | 78 | 181 | 5.0 | 9.0 | 0.00 | 0.00 | 0.00 | 53 | 1003.4 |
| 20260504211028 | 78 | 174 | 5.0 | 11.0 | 0.00 | 0.00 | 0.00 | 52 | 1003.5 |
| 20260504210528 | 78 | 187 | 5.0 | 13.0 | 0.00 | 0.00 | 0.00 | 52 | 1003.5 |
| 20260504210028 | 78 | 176 | 5.0 | 9.0 | 0.00 | 0.00 | 0.00 | 51 | 1003.5 |
| 20260504205528 | 79 | 157 | 5.0 | 10.0 | 0.00 | 0.00 | 0.00 | 52 | 1003.5 |
| 20260504205027 | 79 | 188 | 8.0 | 16.0 | 0.00 | 0.00 | 0.00 | 50 | 1003.6 |
| 20260504204527 | 79 | 174 | 4.0 | 9.0 | 0.00 | 0.00 | 0.00 | 51 | 1003.7 |
| 20260504204027 | 79 | 176 | 6.0 | 15.0 | 0.00 | 0.00 | 0.00 | 51 | 1003.8 |
| 20260504203527 | 79 | 182 | 6.0 | 15.0 | 0.00 | 0.00 | 0.00 | 50 | 1003.7 |
| 20260504203027 | 79 | 188 | 8.0 | 15.0 | 0.00 | 0.00 | 0.00 | 50 | 1003.8 |
| 20260504201527 | 79 | 200 | 9.0 | 19.0 | 0.00 | 0.00 | 0.00 | 49 | 1004.0 |
| 20260504201027 | 79 | 188 | 8.0 | 16.0 | 0.00 | 0.00 | 0.00 | 48 | 1004.1 |
| 20260504200528 | 79 | 190 | 7.0 | 16.0 | 0.00 | 0.00 | 0.00 | 48 | 1004.1 |
| 20260504200028 | 79 | 181 | 7.0 | 13.0 | 0.00 | 0.00 | 0.00 | 49 | 1004.3 |
| 20260504195527 | 79 | 209 | 8.0 | 15.0 | 0.00 | 0.00 | 0.00 | 48 | 1004.3 |
| 20260504195027 | 79 | 201 | 7.0 | 13.0 | 0.00 | 0.00 | 0.00 | 48 | 1004.3 |
| 20260504194528 | 80 | 197 | 7.0 | 18.0 | 0.00 | 0.00 | 0.00 | 48 | 1004.4 |
| 20260504194028 | 80 | 185 | 8.0 | 16.0 | 0.00 | 0.00 | 0.00 | 46 | 1004.4 |
| 20260504193528 | 80 | 188 | 6.0 | 12.0 | 0.00 | 0.00 | 0.00 | 47 | 1004.5 |
| 20260504193028 | 80 | 191 | 7.0 | 17.0 | 0.00 | 0.00 | 0.00 | 47 | 1004.5 |
| 20260504192527 | 80 | 191 | 9.0 | 19.0 | 0.00 | 0.00 | 0.00 | 46 | 1004.6 |
| 20260504192033 | 80 | 205 | 7.0 | 16.0 | 0.00 | 0.00 | 0.00 | 45 | 1004.7 |
| 20260504191527 | 80 | 192 | 7.0 | 17.0 | 0.00 | 0.00 | 0.00 | 45 | 1004.8 |
| 20260504191027 | 80 | 194 | 6.0 | 14.0 | 0.00 | 0.00 | 0.00 | 46 | 1004.9 |
| 20260504190527 | 80 | 186 | 7.0 | 15.0 | 0.00 | 0.00 | 0.00 | 46 | 1004.9 |
| 20260504190027 | 79 | 186 | 8.0 | 20.0 | 0.00 | 0.00 | 0.00 | 46 | 1004.9 |
| 20260504185528 | 79 | 192 | 8.0 | 16.0 | 0.00 | 0.00 | 0.00 | 45 | 1004.9 |
| 20260504185028 | 80 | 192 | 10.0 | 17.0 | 0.00 | 0.00 | 0.00 | 45 | 1004.9 |
| 20260504184527 | 79 | 195 | 9.0 | 18.0 | 0.00 | 0.00 | 0.00 | 45 | 1004.9 |
| 20260504184027 | 80 | 186 | 10.0 | 19.0 | 0.00 | 0.00 | 0.00 | 44 | 1005.0 |
| 20260504183527 | 80 | 186 | 9.0 | 20.0 | 0.00 | 0.00 | 0.00 | 44 | 1005.1 |
| 20260504183027 | 80 | 178 | 8.0 | 17.0 | 0.00 | 0.00 | 0.00 | 44 | 1005.1 |
| 20260504182528 | 80 | 197 | 9.0 | 17.0 | 0.00 | 0.00 | 0.00 | 44 | 1005.1 |
| 20260504182028 | 80 | 192 | 9.0 | 19.0 | 0.00 | 0.00 | 0.00 | 44 | 1005.1 |
| 20260504181528 | 80 | 183 | 8.0 | 18.0 | 0.00 | 0.00 | 0.00 | 45 | 1005.1 |
| 20260504181028 | 80 | 198 | 8.0 | 18.0 | 0.00 | 0.00 | 0.00 | 44 | 1005.1 |
| 20260504180527 | 79 | 201 | 9.0 | 17.0 | 0.00 | 0.00 | 0.00 | 44 | 1005.2 |
| 20260504180027 | 79 | 200 | 8.0 | 16.0 | 0.00 | 0.00 | 0.00 | 43 | 1005.2 |
| 20260504173527 | 80 | 191 | 5.0 | 9.0 | 0.00 | 0.00 | 0.00 | 44 | 1005.6 |
| 20260504173027 | 79 | 199 | 6.0 | 12.0 | 0.00 | 0.00 | 0.00 | 45 | 1005.7 |
| 20260504172527 | 79 | 192 | 6.0 | 16.0 | 0.00 | 0.00 | 0.00 | 44 | 1005.7 |
| 20260504172027 | 79 | 199 | 9.0 | 19.0 | 0.00 | 0.00 | 0.00 | 44 | 1005.7 |
| 20260504171527 | 79 | 203 | 6.0 | 11.0 | 0.00 | 0.00 | 0.00 | 44 | 1005.7 |
| 20260504171027 | 79 | 200 | 6.0 | 16.0 | 0.00 | 0.00 | 0.00 | 44 | 1005.9 |
| 20260504170527 | 78 | 209 | 6.0 | 15.0 | 0.00 | 0.00 | 0.00 | 44 | 1005.9 |
| 20260504151027 | 72 | 204 | 6.0 | 17.0 | 0.00 | 0.00 | 0.00 | 47 | 1006.9 |
| 20260504150528 | 72 | 202 | 8.0 | 21.0 | 0.00 | 0.00 | 0.00 | 47 | 1007.0 |
| 20260504141027 | 68 | 203 | 7.0 | 16.0 | 0.00 | 0.00 | 0.00 | 52 | 1007.3 |
| 20260504140527 | 68 | 199 | 4.0 | 11.0 | 0.00 | 0.00 | 0.00 | 53 | 1007.3 |
| 20260504130528 | 63 | 205 | 6.0 | 13.0 | 0.00 | 0.00 | 0.00 | 57 | 1007.5 |
| 20260504110527 | 62 | 191 | 4.0 | 9.0 | 0.00 | 0.00 | 0.00 | 55 | 1007.9 |
| 20260504081527 | 65 | 199 | 5.0 | 12.0 | 0.00 | 0.00 | 0.00 | 46 | 1008.7 |